User: anonymous   Login
Location: Caltech
(34.1382°N, 118.1253°W)
Time: 11:15:45
(UTC-08:00)
Language:

NOSS 3-4 (C) - Orbit

View from above orbital plane
View from above orbital plane
View from above satellite
View from above satellite

Ground track
Ground track

The orbit data is extracted from the following two-line orbital elements,

1 31708U 07027C   17006.24103710 0.00000000  00000-0  00000-0 0    00
2 31708  63.4030 136.4191 0176000  25.2249 334.7751 13.40722473    03
Epoch (UTC): 06 January 2017 05:47:05
Eccentricity: 0.0176000
inclination: 63.4030°
perigee height: 975 km
apogee height: 1238 km
right ascension of ascending node: 136.4191°
argument of perigee: 25.2249°
revolutions per day: 13.40722473
mean anomaly at epoch: 334.7751°
orbit number at epoch: 0

The dashed part of the orbit path shows where the satellite is in the earth's shadow,  

DLR